Regional Weather Roundup
Issued by NWS Nashville, TN

Home | Current Version | Previous Version | Text Only | Print | Product List | Glossary On
Versions: 1 2 3 4 5 6 7 8 9 10 11 12 13 14 15 16 17 18 19 20 21 22 23 24 25 26 27 28 29 30 31 32 33 34 35 36 37 38 39 40 41 42 43 44 45 46 47 48 49 50
000
ASUS44 KOHX 161600
RWROHX
MIDDLE TENNESSEE HOURLY WEATHER ROUNDUP
NATIONAL WEATHER SERVICE NASHVILLE TN
1100 AM CDT TUE SEP 16 2014

NOTE: "FAIR" INDICATES FEW OR NO CLOUDS BELOW 12,000 FEET WITH
NO SIGNIFICANT WEATHER AND/OR OBSTRUCTIONS TO VISIBILITY.

* THESE REPORTS ARE NOT UNDER NWS QUALITY CONTROL AND MAY NOT
  REPORT WEATHER SUCH AS PRECIPITATION AND FOG.


TNZ005>011-023>034-057-059-062>066-078-080-161700
...NORTHERN MIDDLE TENNESSEE...

CITY           SKY/WX    TMP DP  RH WIND       PRES   REMARKS
CLARKSVILLE    CLOUDY    63  58  83 N15       30.17S
CROSSVILLE     CLOUDY    70  63  78 W6        30.16S
NASHVILLE      CLOUDY    69  64  84 N9        30.14S
SPARTA           N/A     72  66  83 CALM      30.12F
$$
TNZ056-058-060-061-075>077-079-093>097-161700
...SOUTHERN MIDDLE TENNESSEE...

CITY           SKY/WX    TMP DP  RH WIND       PRES   REMARKS
COLUMBIA       CLOUDY    75  72  88 N6        30.12S
FAYETTEVILLE   MOSUNNY   75  64  69 VRB6      30.13S
MCMINNVILLE    PTSUNNY   72  70  94 CALM      30.13F
SHELBYVILLE    PTSUNNY   75  68  78 N6        30.13F
TULLAHOMA      PTSUNNY   73  64  73 NE5       30.14F
WINCHESTER     MOSUNNY   77  66  69 N5        30.13F
$$


...KEY TO REMARKS...
VSB - VISIBILITY IN MILES
WCI - WIND CHILL INDEX
HX  - HEAT INDEX



USA.gov is the U.S. government's official web portal to all federal, state and local government web resources and services.